| time (UTC) | temp F | wind direction | speed knots | gust knots | rain 1hr in | rain 24hr in | rain mn in | humidity % | barometer mb |
| 20260505183047 | 75 | 251 | 5.2 | 13.9 | 0.00 | 0.00 | 0.00 | 43 | 999.4 |
| 20260505183023 | 71 | 144 | 1.7 | 13.0 | 0.00 | 0.01 | 0.00 | 48 | 999.5 |
| 20260505181536 | 73 | 231 | 5.2 | 14.8 | 0.00 | 0.00 | 0.00 | 44 | 999.7 |
| 20260505181521 | 71 | 23 | 1.7 | 12.2 | 0.00 | 0.01 | 0.00 | 47 | 999.6 |
| 20260505180040 | 73 | 241 | 6.1 | 12.2 | 0.00 | 0.00 | 0.00 | 45 | 1000.0 |
| 20260505180014 | 70 | 267 | 4.3 | 15.6 | 0.00 | 0.03 | 0.00 | 49 | 999.9 |
| 20260505174529 | 73 | 287 | 3.5 | 16.5 | 0.00 | 0.00 | 0.00 | 46 | 1000.2 |
| 20260505174512 | 70 | 201 | 2.6 | 15.6 | 0.00 | 0.03 | 0.00 | 49 | 1000.4 |
| 20260505173055 | 70 | 226 | 8.7 | 24.3 | 0.00 | 0.03 | 0.00 | 47 | 1000.7 |
| 20260505173027 | 73 | 220 | 2.6 | 8.7 | 0.00 | 0.05 | 0.00 | 46 | 1000.5 |
| 20260505171550 | 70 | 244 | 7.8 | 16.5 | 0.00 | 0.03 | 0.00 | 48 | 1001.0 |
| 20260505171521 | 73 | 291 | 1.7 | 13.0 | 0.00 | 0.05 | 0.00 | 49 | 1000.9 |
| 20260505170031 | 68 | 311 | 4.3 | 12.2 | 0.00 | 0.07 | 0.00 | 53 | 1001.6 |
| 20260505170021 | 71 | 232 | 3.5 | 12.2 | 0.00 | 0.05 | 0.00 | 49 | 1001.3 |
| 20260505164527 | 69 | 260 | 2.6 | 17.4 | 0.00 | 0.07 | 0.00 | 53 | 1001.9 |
| 20260505164514 | 70 | 189 | 1.7 | 7.8 | 0.00 | 0.05 | 0.00 | 50 | 1001.9 |
| 20260505163015 | 68 | 186 | 0.9 | 10.4 | 0.00 | 0.09 | 0.00 | 52 | 1002.0 |
| 20260505163010 | 68 | 198 | 2.6 | 13.9 | 0.00 | 0.07 | 0.00 | 54 | 1002.3 |
| 20260505161554 | 68 | 261 | 4.3 | 15.6 | 0.00 | 0.09 | 0.00 | 52 | 1002.5 |
| 20260505161519 | 67 | 203 | 5.2 | 16.5 | 0.00 | 0.07 | 0.00 | 56 | 1002.4 |
| 20260505153058 | 63 | 254 | 0.0 | 8.7 | 0.00 | 0.17 | 0.00 | 61 | 1003.5 |
| 20260505153028 | 66 | 285 | 0.0 | 5.2 | 0.00 | 0.18 | 0.00 | 56 | 1003.2 |
| 20260505151555 | 62 | 252 | 3.5 | 11.3 | 0.00 | 0.17 | 0.00 | 62 | 1003.7 |
| 20260505151523 | 64 | 214 | 2.6 | 8.7 | 0.00 | 0.18 | 0.00 | 56 | 1003.6 |
| 20260505150105 | 62 | 277 | 4.3 | 14.8 | 0.00 | 0.28 | 0.00 | 62 | 1004.1 |
| 20260505124524 | 0 | 0.0 | 0.0 | 0.00 | 0.28 | 0.00 | 1004.6 | ||
| 20260505124518 | 50 | 16 | 0.0 | 0.9 | 0.00 | 0.18 | 0.18 | 100 | 1004.4 |
| 20260505123011 | 47 | 104 | 0.0 | 1.7 | 0.00 | 0.18 | 0.18 | 100 | 1004.6 |
| 20260505123000 | 0 | 0.0 | 0.0 | 0.00 | 0.28 | 0.00 | 1004.4 | ||
| 20260505121559 | 0 | 0.0 | 0.0 | 0.00 | 0.28 | 0.00 | 1004.3 | ||
| 20260505121522 | 45 | 22 | 0.0 | 0.0 | 0.00 | 0.18 | 0.18 | 100 | 1004.7 |
| 20260505120036 | 0 | 0.0 | 0.0 | 0.00 | 0.28 | 0.00 | 1004.5 | ||
| 20260505120004 | 43 | 335 | 0.0 | 0.0 | 0.00 | 0.18 | 0.18 | 100 | 1004.7 |
| 20260505114600 | 42 | 335 | 0.0 | 0.0 | 0.00 | 0.18 | 0.18 | 100 | 1005.0 |
| 20260505114530 | 0 | 0.0 | 0.0 | 0.00 | 0.28 | 0.00 | 1004.5 | ||
| 20260505113059 | 41 | 335 | 0.0 | 0.0 | 0.00 | 0.18 | 0.18 | 100 | 1005.1 |
| 20260505113012 | 0 | 0.0 | 0.0 | 0.00 | 0.28 | 0.00 | 1004.7 | ||
| 20260505111545 | 39 | 335 | 0.0 | 1.7 | 0.00 | 0.18 | 0.18 | 100 | 1005.3 |
| 20260505111505 | 0 | 0.0 | 0.0 | 0.00 | 0.28 | 0.00 | 1004.7 | ||
| 20260505101551 | 0 | 0.0 | 0.0 | 0.00 | 0.28 | 0.00 | 1004.9 | ||
| 20260505101523 | 35 | 39 | 0.0 | 0.0 | 0.00 | 0.18 | 0.18 | 100 | 1005.4 |
| 20260505100045 | 0 | 0.0 | 0.0 | 0.00 | 0.28 | 0.00 | 1004.9 | ||
| 20260505100031 | 34 | 39 | 0.0 | 0.0 | 0.00 | 0.18 | 0.18 | 100 | 1005.6 |
| 20260505094540 | 0 | 0.0 | 0.0 | 0.00 | 0.28 | 0.00 | 1004.9 | ||
| 20260505094514 | 34 | 169 | 0.0 | 0.0 | 0.00 | 0.18 | 0.18 | 100 | 1005.4 |
| 20260505093022 | 33 | 168 | 0.0 | 0.0 | 0.00 | 0.18 | 0.18 | 100 | 1005.4 |
| 20260505093020 | 0 | 0.0 | 0.0 | 0.00 | 0.28 | 0.00 | 1004.8 | ||
| 20260505091611 | 33 | 284 | 0.0 | 0.0 | 0.00 | 0.18 | 0.18 | 100 | 1005.6 |
| 20260505091517 | 0 | 0.0 | 0.0 | 0.00 | 0.28 | 0.00 | 1004.8 | ||
| 20260505090056 | 33 | 283 | 0.0 | 0.0 | 0.00 | 0.18 | 0.18 | 100 | 1005.5 |
| 20260505090028 | 0 | 0.0 | 0.0 | 0.00 | 0.28 | 0.00 | 1005.0 | ||
| 20260505084527 | 34 | 283 | 0.0 | 0.0 | 0.00 | 0.18 | 0.18 | 100 | 1005.7 |
| 20260505084507 | 0 | 0.0 | 0.0 | 0.00 | 0.28 | 0.00 | 1005.0 | ||
| 20260505083033 | 34 | 283 | 0.0 | 0.0 | 0.00 | 0.18 | 0.18 | 100 | 1005.8 |
| 20260505083004 | 0 | 0.0 | 0.0 | 0.00 | 0.28 | 0.00 | 1005.1 | ||
| 20260505081601 | 0 | 0.0 | 0.0 | 0.00 | 0.28 | 0.00 | 1005.2 | ||
| 20260505081518 | 34 | 283 | 0.0 | 0.0 | 0.00 | 0.18 | 0.18 | 100 | 1005.9 |
| 20260505080054 | 0 | 0.0 | 0.0 | 0.00 | 0.28 | 0.00 | 1005.1 | ||
| 20260505080014 | 35 | 283 | 0.0 | 0.0 | 0.00 | 0.18 | 0.18 | 100 | 1005.9 |
| 20260505074550 | 0 | 0.0 | 0.0 | 0.00 | 0.28 | 0.00 | 1005.2 | ||
| 20260505074511 | 35 | 283 | 0.0 | 0.0 | 0.00 | 0.18 | 0.18 | 100 | 1005.9 |
| 20260505073046 | 0 | 0.0 | 0.0 | 0.00 | 0.28 | 0.00 | 1005.2 | ||
| 20260505073005 | 35 | 284 | 0.0 | 0.0 | 0.00 | 0.18 | 0.18 | 100 | 1005.8 |
| 20260505071547 | 0 | 0.0 | 0.0 | 0.00 | 0.28 | 0.00 | 1005.2 | ||
| 20260505071501 | 35 | 283 | 0.0 | 0.0 | 0.00 | 0.18 | 0.18 | 100 | 1005.8 |
| 20260505070059 | 36 | 283 | 0.0 | 0.0 | 0.00 | 0.18 | 0.18 | 100 | 1005.9 |
| 20260505070036 | 0 | 0.0 | 0.0 | 0.00 | 0.28 | 0.00 | 1005.2 | ||
| 20260505064559 | 36 | 283 | 0.0 | 0.0 | 0.00 | 0.18 | 0.18 | 100 | 1005.7 |
| 20260505064534 | 0 | 0.0 | 0.0 | 0.00 | 0.28 | 0.00 | 1005.1 | ||
| 20260505063046 | 36 | 283 | 0.0 | 0.0 | 0.00 | 0.18 | 0.18 | 100 | 1005.7 |
| 20260505063027 | 0 | 0.0 | 0.0 | 0.00 | 0.28 | 0.00 | 1005.1 | ||
| 20260505061538 | 36 | 283 | 0.0 | 0.0 | 0.00 | 0.18 | 0.18 | 100 | 1005.8 |
| 20260505061522 | 0 | 0.0 | 0.0 | 0.00 | 0.28 | 0.00 | 1005.3 | ||
| 20260505060031 | 37 | 283 | 0.0 | 0.0 | 0.00 | 0.18 | 0.18 | 100 | 1005.8 |
| 20260505060021 | 0 | 0.0 | 0.0 | 0.00 | 0.28 | 0.00 | 1005.3 | ||
| 20260505054535 | 37 | 283 | 0.0 | 0.0 | 0.00 | 0.18 | 0.18 | 100 | 1005.8 |
| 20260505054514 | 0 | 0.0 | 0.0 | 0.00 | 0.28 | 0.00 | 1005.4 | ||
| 20260505053056 | 0 | 0.0 | 0.0 | 0.00 | 0.28 | 0.00 | 1005.5 | ||
| 20260505053020 | 37 | 283 | 0.0 | 0.0 | 0.00 | 0.18 | 0.18 | 100 | 1005.8 |
| 20260505051551 | 0 | 0.0 | 0.0 | 0.00 | 0.28 | 0.00 | 1005.6 | ||
| 20260505051531 | 37 | 283 | 0.0 | 0.0 | 0.00 | 0.18 | 0.18 | 100 | 1005.8 |
| 20260505041549 | 39 | 283 | 0.0 | 0.0 | 0.00 | 0.18 | 0.18 | 100 | 1005.7 |
| 20260505041534 | 0 | 0.0 | 0.0 | 0.00 | 0.28 | 0.00 | 1005.7 | ||
| 20260505040031 | 0 | 0.0 | 0.0 | 0.00 | 0.28 | 0.28 | 1005.6 | ||
| 20260505040027 | 40 | 284 | 0.0 | 0.0 | 0.00 | 0.18 | 0.18 | 100 | 1005.8 |
| 20260505034525 | 0 | 0.0 | 0.0 | 0.00 | 0.28 | 0.28 | 1005.8 | ||
| 20260505034521 | 40 | 283 | 0.0 | 0.0 | 0.00 | 0.18 | 0.18 | 100 | 1005.8 |
| 20260505033031 | 0 | 0.0 | 0.0 | 0.00 | 0.28 | 0.28 | 1005.8 | ||
| 20260505033017 | 40 | 283 | 0.0 | 0.0 | 0.00 | 0.18 | 0.18 | 100 | 1005.9 |
| 20260505031524 | 40 | 283 | 0.0 | 0.0 | 0.00 | 0.18 | 0.18 | 100 | 1005.9 |
| 20260505031517 | 0 | 0.0 | 0.0 | 0.00 | 0.28 | 0.28 | 1005.8 | ||
| 20260505030012 | 0 | 0.0 | 0.0 | 0.00 | 0.28 | 0.28 | 1005.9 | ||
| 20260505030009 | 41 | 283 | 0.0 | 0.0 | 0.00 | 0.18 | 0.18 | 100 | 1005.9 |
| 20260505024507 | 0 | 0.0 | 0.0 | 0.00 | 0.28 | 0.28 | 1005.9 | ||
| 20260505024503 | 41 | 283 | 0.0 | 0.0 | 0.00 | 0.18 | 0.18 | 100 | 1006.0 |
| 20260505023111 | 42 | 284 | 0.0 | 0.0 | 0.00 | 0.18 | 0.18 | 100 | 1006.1 |
| 20260505023003 | 0 | 0.0 | 0.0 | 0.00 | 0.28 | 0.28 | 1005.9 | ||
| 20260505021600 | 0 | 0.0 | 0.0 | 0.00 | 0.28 | 0.28 | 1006.1 | ||
| 20260505021558 | 42 | 284 | 0.0 | 0.0 | 0.00 | 0.18 | 0.18 | 100 | 1005.9 |
| 20260505020054 | 0 | 0.0 | 0.0 | 0.00 | 0.28 | 0.28 | 1006.2 | ||
| 20260505020048 | 42 | 284 | 0.0 | 0.0 | 0.00 | 0.18 | 0.18 | 100 | 1006.0 |
| 20260505014555 | 0 | 0.0 | 0.0 | 0.00 | 0.28 | 0.28 | 1006.2 | ||
| 20260505014529 | 42 | 284 | 0.0 | 0.0 | 0.00 | 0.18 | 0.18 | 100 | 1006.2 |
| 20260505013032 | 0 | 0.0 | 0.0 | 0.00 | 0.28 | 0.28 | 1006.3 | ||
| 20260505013013 | 43 | 283 | 0.0 | 0.0 | 0.00 | 0.18 | 0.18 | 100 | 1006.0 |
| 20260505011524 | 0 | 0.0 | 0.0 | 0.00 | 0.28 | 0.28 | 1006.3 | ||
| 20260505011513 | 44 | 283 | 0.0 | 0.0 | 0.00 | 0.18 | 0.18 | 100 | 1005.9 |
| 20260505010021 | 0 | 0.0 | 0.0 | 0.00 | 0.28 | 0.28 | 1006.2 | ||
| 20260505010012 | 45 | 283 | 0.0 | 0.0 | 0.00 | 0.18 | 0.18 | 100 | 1005.7 |
| 20260505004518 | 0 | 0.0 | 0.0 | 0.00 | 0.28 | 0.28 | 1006.0 | ||
| 20260505004502 | 45 | 284 | 0.0 | 0.0 | 0.00 | 0.18 | 0.18 | 100 | 1005.5 |
| 20260505003104 | 46 | 283 | 0.0 | 0.0 | 0.00 | 0.18 | 0.18 | 100 | 1005.4 |
| 20260505003012 | 0 | 0.0 | 0.0 | 0.00 | 0.28 | 0.28 | 1005.9 | ||
| 20260505001553 | 48 | 283 | 0.0 | 0.0 | 0.00 | 0.18 | 0.18 | 9 | 1005.3 |
| 20260505001509 | 0 | 0.0 | 0.0 | 0.00 | 0.28 | 0.28 | 1005.5 | ||
| 20260505000053 | 49 | 283 | 0.0 | 0.0 | 0.00 | 0.18 | 0.18 | 20 | 1005.0 |
| 20260505000008 | 0 | 0.0 | 0.0 | 0.00 | 0.28 | 0.28 | 1005.4 | ||
| 20260504234545 | 0 | 0.0 | 0.0 | 0.00 | 0.28 | 0.28 | 1005.2 | ||
| 20260504234543 | 50 | 283 | 0.0 | 0.0 | 0.00 | 0.18 | 0.18 | 31 | 1004.8 |
| 20260504233040 | 0 | 0.0 | 0.0 | 0.00 | 0.28 | 0.28 | 1005.0 | ||
| 20260504233027 | 50 | 283 | 0.0 | 0.0 | 0.00 | 0.18 | 0.18 | 35 | 1004.7 |
| 20260504231523 | 51 | 284 | 0.0 | 0.0 | 0.00 | 0.18 | 0.18 | 34 | 1004.4 |
| 20260504231516 | 0 | 0.0 | 0.0 | 0.00 | 0.28 | 0.28 | 1004.7 | ||
| 20260504230018 | 51 | 284 | 0.0 | 0.0 | 0.00 | 0.18 | 0.18 | 34 | 1004.4 |
| 20260504230014 | 45 | 258 | 2.6 | 6.1 | 0.00 | 0.28 | 0.28 | 97 | 1004.8 |
| 20260504224555 | 45 | 275 | 3.5 | 5.2 | 0.00 | 0.28 | 0.28 | 97 | 1004.8 |
| 20260504224522 | 51 | 285 | 0.0 | 4.3 | 0.00 | 0.18 | 0.18 | 27 | 1004.5 |
| 20260504223054 | 45 | 261 | 3.5 | 7.0 | 0.00 | 0.28 | 0.28 | 98 | 1004.6 |
| 20260504223010 | 51 | 261 | 0.0 | 7.0 | 0.00 | 0.18 | 0.18 | 32 | 1004.4 |
| 20260504221536 | 45 | 237 | 3.5 | 7.0 | 0.00 | 0.28 | 0.28 | 98 | 1004.8 |
| 20260504221505 | 51 | 296 | 2.6 | 9.6 | 0.00 | 0.18 | 0.18 | 31 | 1004.3 |
| 20260504220035 | 44 | 261 | 4.3 | 9.6 | 0.00 | 0.28 | 0.28 | 98 | 1004.8 |
| 20260504220002 | 50 | 352 | 4.3 | 14.8 | 0.00 | 0.18 | 0.18 | 32 | 1004.1 |
| 20260504214558 | 50 | 337 | 7.0 | 13.9 | 0.00 | 0.18 | 0.18 | 32 | 1004.1 |
| 20260504214525 | 44 | 270 | 3.5 | 7.8 | 0.00 | 0.28 | 0.28 | 98 | 1004.7 |
| 20260504213035 | 50 | 328 | 4.3 | 13.9 | 0.00 | 0.18 | 0.18 | 27 | 1004.0 |
| 20260504213022 | 43 | 270 | 6.1 | 11.3 | 0.00 | 0.28 | 0.28 | 98 | 1004.8 |
| 20260504211532 | 51 | 347 | 7.8 | 14.8 | 0.00 | 0.18 | 0.18 | 28 | 1004.1 |
| 20260504211519 | 43 | 262 | 4.3 | 8.7 | 0.00 | 0.28 | 0.28 | 98 | 1004.7 |
| 20260504210032 | 43 | 293 | 3.5 | 10.4 | 0.00 | 0.28 | 0.28 | 98 | 1004.6 |
| 20260504210019 | 51 | 17 | 7.0 | 13.0 | 0.00 | 0.18 | 0.18 | 24 | 1003.9 |
| 20260504204529 | 43 | 277 | 5.2 | 12.2 | 0.00 | 0.28 | 0.28 | 98 | 1004.6 |
| 20260504204512 | 51 | 305 | 3.5 | 13.9 | 0.00 | 0.18 | 0.18 | 18 | 1004.0 |
| 20260504203023 | 42 | 275 | 5.2 | 13.0 | 0.01 | 0.28 | 0.28 | 98 | 1004.7 |
| 20260504203006 | 50 | 304 | 6.1 | 15.6 | 0.00 | 0.18 | 0.18 | 17 | 1003.9 |
| 20260504201516 | 42 | 275 | 6.1 | 12.2 | 0.01 | 0.28 | 0.28 | 98 | 1004.6 |
| 20260504201502 | 50 | 282 | 6.1 | 20.9 | 0.00 | 0.18 | 0.18 | 11 | 1003.7 |
| 20260504200104 | 50 | 326 | 7.8 | 20.9 | 0.00 | 0.18 | 0.18 | 100 | 1003.7 |
| 20260504200015 | 42 | 254 | 7.0 | 16.5 | 0.01 | 0.28 | 0.28 | 98 | 1004.4 |
| 20260504194559 | 42 | 257 | 5.2 | 12.2 | 0.01 | 0.28 | 0.28 | 98 | 1004.3 |
| 20260504194554 | 48 | 328 | 8.7 | 19.1 | 0.00 | 0.18 | 0.18 | 100 | 1003.9 |
| 20260504193100 | 42 | 289 | 5.2 | 11.3 | 0.00 | 0.27 | 0.27 | 98 | 1004.2 |
| 20260504193050 | 47 | 294 | 9.6 | 16.5 | 0.00 | 0.18 | 0.18 | 100 | 1003.7 |
| 20260504191604 | 42 | 263 | 5.2 | 11.3 | 0.00 | 0.27 | 0.27 | 98 | 1004.1 |
| 20260504191559 | 46 | 339 | 7.0 | 22.6 | 0.00 | 0.18 | 0.18 | 100 | 1003.7 |
| 20260504190058 | 41 | 283 | 5.2 | 11.3 | 0.00 | 0.27 | 0.27 | 98 | 1004.0 |
| 20260504190029 | 46 | 315 | 4.3 | 10.4 | 0.00 | 0.18 | 0.18 | 100 | 1003.7 |
| 20260504184602 | 41 | 277 | 5.2 | 10.4 | 0.01 | 0.27 | 0.27 | 98 | 1004.1 |
| 20260504184533 | 46 | 301 | 1.7 | 7.0 | 0.00 | 0.18 | 0.18 | 100 | 1003.9 |